Portada
METAR-TAF:

METAR-TAF

Aeroports :

Matsumoto, Japó

latitud: 36-10N, longitud: 137-56E, altitud: 668 m

Observació

L'informe es va fer fa 1 hora i 13 minuts, a les 02:00 UTC
Vent 5 kt del Nord, variant entre Nord-Oest i Nord-Est
Temperatura 6°C
Humitat 75%
Pressió 1016 hPa
Visibilitat 10 km o més
Escasses núvols a una alçada de 200 ft
Cel ennuvolat

METAR: RJAF 110200Z 35005KT 310V040 9999 FEW002 BKN/// 06/02 Q1016

Hora: 12:13 (03:13 UTC)


TAF: manca

Observacions i pronòstics meteorològics de més de 4000 aeroports (METAR i TAF).

Les estacions disponibles són els punts grocs i vermells al mapa.

Posi el ratolí al punt desitjat per veure el nom de l'estació.

Feu clic per veure les observacions i els pronòstics meteorològics.

Per canviar el mapa: feu clic els botons verds amb una creu de color negre per apropar; al botó verd amb un guió per allunyar la imatge; o en les fletxes verdes per a mapes adjacents.


METAR-TAF: